星链-5521 (STARLINK-5521 )

导读 | 星芒AI

STARLINK-5521 是 SpaceX Starlink 项目中的一颗低轨通信卫星,属于第二代 Starlink 卫星星座的一部分。该卫星旨在为全球提供高速、低延迟的互联网服务,特别服务于网络基础设施薄弱的地区。它运行在约 550 公里的轨道高度,采用先进的推进系统和激光通信技术,以提升网络效率和稳定性。STARLINK-5521 的发射和运行有助于扩大 Starlink 的覆盖范围,增强其在全球宽带市场的竞争力。

基本信息
目录编号:
56471
目录名称:
STARLINK-5521
国际标识:
2023-064Z
轨道中心:
EARTH
卫星名称:
星链-5521
卫星全名:
星链-5521 (STARLINK-5521 )
卫星状态:
在轨 (已飞行909 天)
发射日期:
2023-05-10 UTC
国别 :
美国 (US)
星等 :
--
轨道信息
数据来源 国际轨道数据
星历时间: 2025-11-04T19:50:17+0800
5小时前
查看轨道信息
半长轴: 6950.291km
偏心率: 0.0003711
轨道倾角: 69.999°
近地点辐角 281.615°
升交点赤经 80.219°
平近点角 78.459°
近地点: 569.576km
远地点: 574.736km
周期: 96.109分钟
每日圈数: 14.982984
详细信息
固有亮度:
5
最大亮度:
2.5
卫星平台:
Starlink v1.5
覆盖范围:
全球
运营商:
太空探索技术公司
运营商所在国:
美国
制造商(研发单位):
太空探索技术公司
制造商所在国:
美国
使用方式:
暂无
卫星简介
星链(Starlink)计划是由太空探索技术公司(SpaceX)提出的一个巨型低轨卫星互联网星座项目,计划在2019年至2024年间在太空搭建由约1.2万颗卫星组成的“星链”网络,其中1584颗将部署在地球上空550千米处的近地轨道,并从2020年开始工作。该卫星仍在工作。
2D轨道图
3D轨道图
轨道高度分析图
轨道倾角分析图
轨道综合分析图
查看轨道综合分析图